[[{"header":{"parameterUnit":"m.s-1","parameterCategory":2,"la1":30.2991,"la2":30.254,"lo1":-89.0895,"lo2":-89.0444,"dy":0.0017,"dx":0.0017,"nx":28,"ny":28,"refTime":"2024-12-14T09:00:00:Z","depth":"0","parameterNumber":2,"parameterNumberName":"U-component_of_CURRENTS"},"data":[0,0,0,0,0,0,0,0,0,0,0,0,0,0,0,0,0,0,0,0,0,0,0,0,0,0,0,0,0,0,0,0,0,0,0,0,0,0,0,0,0,0,0,0,0,0,0,0,0,0,0,0,0,0,0,0,0,0,-0.2614,-0.2617,0,-0.2783,-0.2784,-0.2786,-0.2738,-0.2735,-0.2732,-0.2729,-0.2733,-0.2736,-0.2739,0,0,0,0,0,0,0,0,0,0,0,0,0,-0.2317,-0.2322,-0.2614,-0.2617,-0.2619,-0.2782,-0.2784,-0.2786,-0.2739,-0.2735,-0.2731,-0.2728,-0.2732,-0.2735,-0.2739,0,0,0,0,0,0,0,0,0,0,0,0,0,-0.2457,-0.2323,-0.2614,-0.2619,-0.2622,-0.2782,-0.2784,-0.2787,-0.2739,-0.2735,-0.273,-0.2726,-0.2731,-0.2735,-0.2739,-0.2855,0,0,-0.2753,-0.2754,0,0,0,0,0,0,0,0,-0.2449,-0.2467,-0.2616,-0.2619,-0.2622,-0.2739,-0.2681,-0.2803,-0.2741,-0.2689,-0.2729,-0.2724,-0.2727,-0.2731,-0.2768,-0.2855,-0.2856,-0.2753,-0.2756,-0.2757,-0.2759,0,0,0,0,0,0,0,-0.2439,-0.246,-0.2676,-0.2619,-0.2623,-0.2636,-0.2649,-0.2705,-0.2724,-0.2694,-0.2692,-0.272,-0.2726,-0.2764,-0.2767,-0.2856,-0.2753,-0.2757,-0.2759,-0.2761,-0.2982,-0.2985,0,0,0,0,0,0,-0.2431,-0.2452,-0.267,-0.2681,-0.2528,-0.2645,-0.266,-0.2702,-0.2727,-0.2729,-0.2724,-0.2717,-0.2759,-0.2762,-0.2767,-0.2829,-0.2757,-0.2761,-0.2764,-0.2979,-0.2983,-0.2986,0,0,0,0,0,0,-0.2425,-0.245,-0.2664,-0.2572,-0.2601,-0.2655,-0.2702,-0.2708,-0.2735,-0.2753,-0.2749,-0.2744,-0.2755,-0.2761,-0.282,-0.2831,-0.2763,-0.2767,-0.2975,-0.298,-0.2985,-0.3002,0,0,0,0,0,0,-0.2416,-0.2447,-0.2474,-0.2573,-0.2606,-0.2768,-0.2708,-0.2715,-0.2763,-0.2755,-0.277,-0.2766,-0.2752,-0.2814,-0.2824,-0.2835,-0.2771,-0.2971,-0.2977,-0.2983,-0.2997,-0.3007,-0.3015,0,0,0,0,0,-0.2405,-0.2488,-0.2474,-0.2501,-0.2642,-0.2772,-0.2791,-0.2808,-0.2768,-0.2809,-0.2809,-0.2765,-0.2859,-0.2822,-0.2832,-0.2844,-0.2968,-0.2975,-0.2983,-0.2993,-0.3005,-0.3015,0,0,0,0,0,0,-0.2385,-0.2494,-0.2481,-0.2592,-0.2667,-0.2765,-0.2824,-0.2823,-0.2863,-0.2845,-0.2824,-0.2825,-0.2883,-0.2886,-0.2845,-0.2933,-0.2902,-0.2912,-0.2906,-0.2917,-0.2926,-0.2882,-0.2774,0,0,0,0,0,-0.2392,-0.2465,-0.2563,-0.2643,-0.2694,-0.2752,-0.2804,-0.2817,-0.2871,-0.2883,-0.2892,-0.2905,-0.2935,-0.2938,-0.2984,-0.3042,-0.2994,-0.3057,-0.3066,-0.3073,-0.3051,-0.2985,-0.2983,-0.3011,-0.3011,-0.3011,0,0,-0.2401,-0.2473,-0.251,-0.2641,-0.2704,-0.2793,-0.2772,-0.2872,-0.2906,-0.2881,-0.2937,-0.2956,-0.2968,-0.3023,-0.3046,-0.3012,-0.3053,-0.3082,-0.3087,-0.3061,-0.2992,-0.2988,-0.2984,-0.3016,-0.3015,-0.3014,0,0,-0.248,-0.2531,-0.262,-0.2693,-0.2801,-0.284,-0.2867,-0.2968,-0.2971,-0.3048,-0.3022,-0.3039,-0.3114,-0.3097,-0.3099,-0.3195,-0.312,-0.3221,-0.3203,-0.314,-0.3135,-0.3129,-0.3096,-0.3087,-0.3201,-0.3201,-0.3201,0,-0.2476,-0.259,-0.2665,-0.2772,-0.2808,-0.2858,-0.293,-0.2985,-0.3074,-0.3047,-0.3065,-0.3106,-0.3136,-0.3124,-0.3167,-0.3205,-0.3166,-0.3148,-0.3142,-0.3136,-0.3129,-0.3096,-0.3086,-0.3203,-0.3203,-0.3203,-0.3202,0,-0.2623,-0.2695,-0.2768,-0.288,-0.294,-0.3023,-0.3087,-0.3118,-0.3116,-0.3125,-0.3131,-0.3176,-0.3161,-0.32,-0.3221,-0.3196,-0.3185,-0.317,-0.3091,-0.3125,-0.3092,-0.308,-0.3205,-0.3205,-0.3204,-0.3204,0,0,-0.2621,-0.282,-0.2833,-0.284,-0.2981,-0.3018,-0.3088,-0.3109,-0.3072,-0.315,-0.3091,-0.3179,-0.3153,-0.3158,-0.3171,-0.3141,-0.3111,-0.3144,-0.3139,-0.307,-0.2982,-0.2959,-0.2945,-0.3076,-0.3074,-0.3072,-0.2984,0,-0.2678,-0.2835,-0.2925,-0.2989,-0.3039,-0.3071,-0.3103,-0.3114,-0.3117,-0.3095,-0.3091,-0.3087,-0.315,-0.313,-0.3115,-0.312,-0.3078,-0.3137,-0.2994,-0.299,-0.293,-0.2929,-0.2822,-0.2732,-0.2973,-0.2971,-0.2969,0,-0.276,-0.2829,-0.2928,-0.294,-0.2962,-0.3006,-0.2948,-0.2987,-0.298,-0.2975,-0.2955,-0.2971,-0.297,-0.3013,-0.2978,-0.3008,-0.2996,-0.2994,-0.2989,-0.2941,-0.2945,-0.2736,-0.2701,-0.2689,-0.2951,-0.2953,-0.2954,0,-0.2645,-0.2787,-0.2824,-0.2858,-0.2937,-0.2918,-0.2922,-0.2923,-0.291,-0.2887,-0.2878,-0.2856,-0.2865,-0.2833,-0.2901,-0.2913,-0.2854,-0.285,-0.2804,-0.2804,-0.2669,-0.266,-0.256,-0.2776,-0.2776,-0.2776,-0.2776,0,-0.2635,-0.2638,-0.2766,-0.2781,-0.2731,-0.2812,-0.2753,-0.2752,-0.277,-0.2747,-0.28,-0.2795,-0.2823,-0.2826,-0.2841,-0.2808,-0.2793,-0.2785,-0.2763,-0.2683,-0.2677,-0.2627,-0.2656,-0.2773,-0.2774,-0.2774,-0.2775,0,-0.25,-0.2622,-0.2625,-0.269,-0.2694,-0.2639,-0.2665,-0.2632,-0.2676,-0.2657,-0.2658,-0.2735,-0.2745,-0.2774,-0.2745,-0.2738,-0.2649,-0.2682,-0.2615,-0.2586,-0.2507,-0.2543,-0.2405,-0.234,-0.2568,-0.2567,-0.2566,0,-0.2449,-0.2463,-0.2517,-0.2508,-0.2538,-0.2507,-0.2496,-0.2551,-0.2551,-0.2627,-0.2614,-0.2657,-0.2673,-0.265,-0.2629,-0.2583,-0.2594,-0.2456,-0.2451,-0.247,-0.2493,-0.2516,-0.2472,-0.2296,-0.2292,-0.229,-0.2288,0,-0.2293,-0.2334,-0.2342,-0.2342,-0.2337,-0.232,-0.2328,-0.2331,-0.2416,-0.2441,-0.2495,-0.252,-0.2548,-0.2487,-0.2465,-0.2422,-0.2388,-0.2399,-0.2401,-0.2252,-0.228,-0.2217,-0.2429,-0.2264,-0.2267,-0.2268,-0.227,-0.227,-0.2146,-0.2111,-0.2159,-0.2131,-0.2137,-0.2135,-0.2086,-0.2154,-0.2159,-0.2203,-0.2323,-0.2345,-0.2359,-0.2315,-0.2284,-0.2181,-0.2228,-0.2106,-0.2143,-0.2162,-0.2101,-0.229,-0.212,-0.2121,-0.2123,-0.2124,-0.2125,0,-0.1955,-0.1962,-0.1941,-0.1932,-0.1895,-0.1954,-0.1967,-0.1933,-0.1925,-0.2025,-0.2064,-0.2126,-0.207,-0.2095,-0.2034,-0.1954,-0.1899,-0.1908,-0.1894,-0.1856,-0.1981,-0.1972,-0.1782,-0.1782,-0.1782,-0.1782,-0.1782,-0.1782,-0.1859,-0.1795,-0.1803,-0.1701,-0.1699,-0.1617,-0.1605,-0.16,-0.1638,-0.1676,-0.1756,-0.1868,-0.1916,-0.2053,-0.195,-0.1854,-0.1809,-0.175,-0.1788,-0.1884,-0.1906,-0.1926,-0.1922,-0.1725,-0.1725,-0.1576,-0.1575,-0.1575]},{"header":{"parameterUnit":"m.s-1","parameterCategory":2,"la1":30.2991,"la2":30.254,"lo1":-89.0895,"lo2":-89.0444,"dy":0.0017,"dx":0.0017,"nx":28,"ny":28,"refTime":"2024-12-14T09:00:00:Z","depth":"0","parameterNumber":3,"parameterNumberName":"V-component_of_CURRENTS"},"data":[0,0,0,0,0,0,0,0,0,0,0,0,0,0,0,0,0,0,0,0,0,0,0,0,0,0,0,0,0,0,0,0,0,0,0,0,0,0,0,0,0,0,0,0,0,0,0,0,0,0,0,0,0,0,0,0,0,0,-0.0241,-0.0241,0,-0.0145,-0.0144,-0.0142,-0.0067,-0.0067,-0.0066,-0.0066,0.0098,0.0102,0.0106,0,0,0,0,0,0,0,0,0,0,0,0,0,-0.0233,-0.0235,-0.0242,-0.0241,-0.024,-0.0145,-0.0143,-0.0142,-0.0067,-0.0067,-0.0066,-0.0066,0.0097,0.0101,0.0106,0,0,0,0,0,0,0,0,0,0,0,0,0,-0.0195,-0.0235,-0.0242,-0.0193,-0.0188,-0.0145,-0.0143,-0.0141,-0.0067,-0.0067,-0.0066,-0.0065,0.0095,0.0101,0.0107,0.0129,0,0,0.0124,0.0127,0,0,0,0,0,0,0,0,-0.0197,-0.0195,-0.0201,-0.0196,-0.019,-0.012,-0.0081,-0.0049,-0.0068,-0.011,-0.0066,-0.0065,0.0029,0.004,0.006,0.0136,0.0143,0.0125,0.0129,0.0131,0.0133,0,0,0,0,0,0,0,-0.02,-0.0198,-0.0201,-0.02,-0.0194,-0.0132,-0.0127,-0.0074,-0.0042,-0.0106,-0.0101,-0.0095,0.0033,0.0054,0.0064,0.0146,0.0125,0.013,0.0134,0.0136,0.0293,0.0294,0,0,0,0,0,0,-0.0225,-0.0201,-0.0204,-0.0198,-0.0195,-0.0134,-0.0127,-0.0141,-0.0044,-0.003,-0.0096,-0.0092,0.0044,0.0057,0.007,0.0113,0.0131,0.0137,0.014,0.0293,0.0293,0.0294,0,0,0,0,0,0,-0.0226,-0.0227,-0.0208,-0.0198,-0.0191,-0.0136,-0.0151,-0.0139,-0.0119,-0.0038,-0.0021,-0.0088,0.0045,0.0062,0.0121,0.012,0.0139,0.0145,0.0292,0.0293,0.0294,0.0192,0,0,0,0,0,0,-0.0226,-0.0229,-0.0241,-0.0201,-0.0193,-0.0195,-0.0151,-0.0138,-0.0118,-0.0112,-0.0025,-0.0009,0.0047,0.0112,0.0127,0.0128,0.0149,0.0291,0.0292,0.0293,0.0195,0.019,0.0185,0,0,0,0,0,-0.0227,-0.0266,-0.0243,-0.0243,-0.0215,-0.0196,-0.0187,-0.0141,-0.0118,-0.0118,-0.0051,-0.0012,0.0131,0.0116,0.0134,0.0137,0.029,0.0292,0.0293,0.0197,0.0191,0.0186,0,0,0,0,0,0,-0.0273,-0.0261,-0.0235,-0.0268,-0.0235,-0.0185,-0.0185,-0.015,-0.0098,-0.0089,-0.0007,0.0013,0.0067,0.0118,0.0101,0.019,0.0219,0.0224,0.014,0.0134,0.013,0.0108,0.0154,0,0,0,0,0,-0.0289,-0.0311,-0.0276,-0.0298,-0.0289,-0.0235,-0.0219,-0.0189,-0.0141,-0.0117,-0.0055,0.0019,0.0087,0.0121,0.0184,0.0226,0.0273,0.0244,0.024,0.0235,0.0232,0.0295,0.0294,0.0299,0.0299,0.0299,0,0,-0.0311,-0.0307,-0.0317,-0.0307,-0.0279,-0.0271,-0.0224,-0.0215,-0.0194,-0.0107,-0.0064,0.0002,0.0095,0.0147,0.0175,0.0188,0.0259,0.0237,0.0232,0.0232,0.0296,0.0295,0.0295,0.03,0.03,0.03,0,0,-0.0372,-0.0364,-0.04,-0.0377,-0.0349,-0.0309,-0.0311,-0.0263,-0.0229,-0.0182,-0.0107,-0.0046,0.0049,0.0115,0.0162,0.0171,0.0231,0.0195,0.0152,0.0212,0.0212,0.0212,0.0262,0.0267,0.0192,0.0191,0.0191,0,-0.0396,-0.0431,-0.0403,-0.042,-0.04,-0.0333,-0.0342,-0.03,-0.0233,-0.0198,-0.0181,-0.003,0.0035,0.0117,0.0119,0.0157,0.0199,0.0159,0.0202,0.0204,0.0206,0.0257,0.0264,0.0187,0.0187,0.0188,0.0188,0,-0.048,-0.0487,-0.0507,-0.0498,-0.0472,-0.0473,-0.0408,-0.0373,-0.032,-0.0267,-0.0186,-0.0097,-0.0005,0.0024,0.0073,0.0127,0.0154,0.0184,0.0206,0.0198,0.0254,0.0263,0.018,0.0182,0.0183,0.0184,0,0,-0.0574,-0.0568,-0.0569,-0.0554,-0.051,-0.0493,-0.0457,-0.0395,-0.0358,-0.0291,-0.024,-0.0137,-0.0088,-0.0031,0.004,0.0087,0.0127,0.0129,0.0135,0.0158,0.0253,0.0298,0.0313,0.016,0.0161,0.0162,0.0283,0,-0.0637,-0.0682,-0.0654,-0.0649,-0.065,-0.0565,-0.0529,-0.0458,-0.0387,-0.0322,-0.0226,-0.0153,-0.0107,-0.0065,-0.0013,0.0102,0.0149,0.0091,0.0276,0.0281,0.0305,0.0324,0.0352,0.0464,0.0292,0.0294,0.0295,0,-0.0727,-0.0729,-0.0762,-0.0696,-0.0688,-0.0673,-0.0579,-0.0537,-0.0427,-0.0373,-0.0293,-0.0212,-0.0119,-0.0088,0.008,0.0041,0.0132,0.0211,0.0218,0.0302,0.0344,0.0449,0.0488,0.065,0.031,0.0309,0.0308,0,-0.0804,-0.0793,-0.0815,-0.0801,-0.0734,-0.0712,-0.0661,-0.0559,-0.0511,-0.0407,-0.0367,-0.0243,-0.0178,-0.0052,0.0108,0.0096,0.0288,0.03,0.0427,0.0431,0.0514,0.0524,0.0716,0.0409,0.0409,0.0409,0.0409,0,-0.0888,-0.089,-0.0853,-0.0862,-0.0839,-0.0773,-0.0734,-0.066,-0.0573,-0.0522,-0.0406,-0.0341,-0.0168,-0.0033,0.0101,0.0299,0.0291,0.0427,0.0471,0.048,0.0485,0.0679,0.0732,0.0413,0.0412,0.0412,0.0411,0,-0.0972,-0.0965,-0.0962,-0.0907,-0.0885,-0.0865,-0.0781,-0.0748,-0.0662,-0.0596,-0.0569,-0.0408,-0.0227,-0.0041,0.0179,0.0297,0.058,0.0549,0.0543,0.0584,0.0838,0.0883,0.111,0.1191,0.0704,0.0705,0.0707,0,-0.1023,-0.1045,-0.1,-0.099,-0.0968,-0.0927,-0.0896,-0.0803,-0.0766,-0.063,-0.0604,-0.0424,-0.0277,0.0067,0.031,0.0569,0.0679,0.0739,0.0723,0.0868,0.0951,0.098,0.1033,0.0793,0.0795,0.0797,0.0798,0,-0.1083,-0.1076,-0.1067,-0.105,-0.103,-0.0994,-0.0947,-0.0937,-0.0832,-0.0765,-0.0642,-0.0516,-0.0177,0.0137,0.0475,0.063,0.0854,0.0782,0.0948,0.1052,0.1083,0.1177,0.0688,0.0814,0.0813,0.0812,0.0811,0.081,-0.1108,-0.1113,-0.1104,-0.108,-0.1065,-0.1051,-0.1026,-0.0984,-0.0926,-0.0809,-0.0688,-0.0471,-0.0011,0.0478,0.0663,0.1056,0.1007,0.1167,0.1213,0.1233,0.1307,0.0845,0.1009,0.1009,0.1008,0.1008,0.1008,0,-0.1115,-0.1122,-0.1118,-0.1098,-0.1094,-0.107,-0.104,-0.1003,-0.0947,-0.0821,-0.0678,-0.0187,0.0279,0.0705,0.1258,0.1476,0.1512,0.1583,0.164,0.1676,0.1296,0.1296,0.1511,0.1511,0.1511,0.1511,0.151,0.151,-0.112,-0.1123,-0.1118,-0.1108,-0.1103,-0.1078,-0.1062,-0.1003,-0.09,-0.0658,-0.0402,-0.0198,0.0418,0.1326,0.1846,0.1892,0.2063,0.2049,0.2141,0.1888,0.1852,0.1818,0.1835,0.2159,0.216,0.2507,0.2511,0.2513]}],[{"header":{"parameterUnit":"m.s-1","parameterCategory":2,"la1":30.2991,"la2":30.254,"lo1":-89.0895,"lo2":-89.0444,"dy":0.0017,"dx":0.0017,"nx":28,"ny":28,"refTime":"2024-12-14T09:00:00:Z","depth":"2","parameterNumber":2,"parameterNumberName":"U-component_of_CURRENTS"},"data":[0,0,0,0,0,0,0,0,0,0,0,0,0,0,0,0,0,0,0,0,0,0,0,0,0,0,0,0,0,0,0,0,0,0,0,0,0,0,0,0,0,0,0,0,0,0,0,0,0,0,0,0,0,0,0,0,0,0,-0.2251,-0.2252,0,-0.2359,-0.236,-0.2361,-0.2315,-0.2313,-0.231,-0.2308,-0.2331,-0.2333,-0.2336,0,0,0,0,0,0,0,0,0,0,0,0,0,-0.2044,-0.2047,-0.2251,-0.2252,-0.2254,-0.2358,-0.236,-0.2361,-0.2315,-0.2312,-0.231,-0.2307,-0.233,-0.2333,-0.2336,0,0,0,0,0,0,0,0,0,0,0,0,0,-0.2138,-0.2048,-0.225,-0.2246,-0.2247,-0.2358,-0.236,-0.2361,-0.2316,-0.2312,-0.2309,-0.2306,-0.2329,-0.2333,-0.2337,-0.2431,0,0,-0.2349,-0.2351,0,0,0,0,0,0,0,0,-0.2132,-0.2145,-0.2245,-0.2247,-0.2248,-0.2323,-0.2295,-0.2381,-0.2317,-0.2286,-0.2308,-0.2304,-0.2325,-0.2329,-0.2353,-0.2432,-0.2433,-0.235,-0.2352,-0.2354,-0.2355,0,0,0,0,0,0,0,-0.2126,-0.214,-0.229,-0.2248,-0.2249,-0.2253,-0.2261,-0.2312,-0.2319,-0.2289,-0.2286,-0.2305,-0.2324,-0.235,-0.2353,-0.2433,-0.2349,-0.2353,-0.2356,-0.2357,-0.2543,-0.2545,0,0,0,0,0,0,-0.2122,-0.2135,-0.2287,-0.2294,-0.2184,-0.2259,-0.2269,-0.2299,-0.2321,-0.2322,-0.2308,-0.2303,-0.2344,-0.2349,-0.2354,-0.2424,-0.2354,-0.2358,-0.236,-0.2541,-0.2544,-0.2546,0,0,0,0,0,0,-0.2117,-0.2135,-0.2282,-0.2218,-0.2237,-0.2266,-0.2301,-0.2304,-0.2327,-0.2337,-0.2335,-0.2329,-0.2342,-0.2348,-0.2402,-0.2425,-0.2359,-0.2363,-0.2538,-0.2542,-0.2545,-0.2591,0,0,0,0,0,0,-0.2111,-0.2133,-0.2155,-0.2218,-0.2241,-0.2366,-0.2305,-0.2308,-0.2346,-0.234,-0.2355,-0.2353,-0.234,-0.2396,-0.2406,-0.243,-0.2366,-0.2535,-0.2539,-0.2544,-0.2586,-0.2596,-0.2604,0,0,0,0,0,-0.2104,-0.2161,-0.2156,-0.2175,-0.227,-0.2369,-0.2382,-0.2387,-0.235,-0.2389,-0.2383,-0.2353,-0.2431,-0.2402,-0.2413,-0.2438,-0.2532,-0.2538,-0.2543,-0.2582,-0.2594,-0.2604,0,0,0,0,0,0,-0.2093,-0.2165,-0.2159,-0.2236,-0.2301,-0.2362,-0.2403,-0.2404,-0.2435,-0.242,-0.24,-0.2402,-0.2454,-0.2457,-0.2425,-0.2508,-0.2472,-0.2481,-0.2498,-0.2509,-0.2518,-0.248,-0.237,0,0,0,0,0,-0.2102,-0.215,-0.2224,-0.2284,-0.2321,-0.2362,-0.2399,-0.2413,-0.245,-0.2459,-0.2464,-0.2472,-0.2494,-0.2506,-0.2536,-0.2599,-0.2553,-0.262,-0.2628,-0.2636,-0.2615,-0.2557,-0.2556,-0.2565,-0.2565,-0.2565,0,0,-0.2112,-0.2158,-0.2185,-0.2283,-0.2327,-0.2392,-0.2376,-0.2455,-0.2486,-0.2461,-0.2503,-0.2515,-0.2521,-0.2573,-0.2596,-0.2572,-0.2622,-0.2643,-0.2648,-0.2623,-0.2562,-0.256,-0.2559,-0.2568,-0.2568,-0.2567,0,0,-0.217,-0.2205,-0.2267,-0.2322,-0.2406,-0.2435,-0.246,-0.2535,-0.2545,-0.2609,-0.2579,-0.2603,-0.2657,-0.2651,-0.2653,-0.2739,-0.2674,-0.2756,-0.2763,-0.2709,-0.2706,-0.2702,-0.268,-0.2674,-0.2754,-0.2754,-0.2754,0,-0.2173,-0.2247,-0.2304,-0.2376,-0.2402,-0.2451,-0.2507,-0.2555,-0.2628,-0.2615,-0.2625,-0.2651,-0.2684,-0.2686,-0.2725,-0.2754,-0.2714,-0.2717,-0.2714,-0.2709,-0.2705,-0.2682,-0.2675,-0.2757,-0.2756,-0.2756,-0.2756,0,-0.227,-0.2321,-0.2369,-0.2447,-0.2499,-0.2562,-0.2623,-0.2662,-0.2667,-0.2676,-0.2693,-0.2734,-0.2722,-0.2762,-0.2778,-0.2771,-0.2753,-0.2731,-0.2672,-0.2705,-0.2682,-0.2674,-0.2761,-0.276,-0.2759,-0.2758,0,0,-0.2263,-0.2402,-0.2407,-0.2421,-0.2523,-0.2563,-0.2627,-0.266,-0.2643,-0.2711,-0.2675,-0.2754,-0.2737,-0.2742,-0.2761,-0.2746,-0.2733,-0.2735,-0.2731,-0.2687,-0.262,-0.2589,-0.2577,-0.2691,-0.2689,-0.2687,-0.2628,0,-0.2295,-0.2403,-0.2465,-0.252,-0.2562,-0.2601,-0.2634,-0.2666,-0.2682,-0.2676,-0.2691,-0.2692,-0.2739,-0.2736,-0.2728,-0.2732,-0.2706,-0.2752,-0.2615,-0.2612,-0.2557,-0.2564,-0.2386,-0.2314,-0.2619,-0.2617,-0.2616,0,-0.234,-0.239,-0.2464,-0.2495,-0.2513,-0.255,-0.2537,-0.2581,-0.2594,-0.2602,-0.2594,-0.2606,-0.2626,-0.2653,-0.2628,-0.2647,-0.2634,-0.2633,-0.2629,-0.2565,-0.2563,-0.2326,-0.2286,-0.2601,-0.2602,-0.2604,-0.2605,0,-0.2258,-0.2362,-0.2392,-0.2417,-0.2494,-0.2493,-0.2512,-0.2535,-0.2543,-0.2546,-0.2546,-0.2534,-0.2552,-0.2517,-0.2569,-0.2576,-0.2526,-0.2522,-0.2471,-0.247,-0.2273,-0.2257,-0.2457,-0.2457,-0.2457,-0.2457,-0.2458,0,-0.2235,-0.2247,-0.2351,-0.2361,-0.2343,-0.2421,-0.2397,-0.2417,-0.2448,-0.2439,-0.2492,-0.2493,-0.2516,-0.2515,-0.2522,-0.2483,-0.2476,-0.2458,-0.2437,-0.2294,-0.2282,-0.2488,-0.2492,-0.2455,-0.2456,-0.2456,-0.2457,0,-0.2139,-0.2226,-0.2242,-0.2305,-0.2316,-0.2293,-0.2338,-0.2325,-0.2379,-0.2378,-0.2385,-0.2453,-0.2456,-0.2477,-0.2448,-0.2431,-0.2392,-0.2372,-0.2233,-0.2197,-0.2382,-0.239,-0.2278,-0.2276,-0.2274,-0.2273,-0.2272,0,-0.2104,-0.2117,-0.217,-0.2168,-0.2194,-0.2194,-0.2197,-0.2265,-0.2273,-0.2352,-0.2343,-0.2383,-0.2382,-0.2355,-0.2323,-0.2276,-0.2348,-0.2085,-0.2063,-0.2364,-0.2356,-0.2367,-0.2377,-0.1838,-0.1833,-0.1829,-0.1826,0,-0.1997,-0.2024,-0.2034,-0.204,-0.2045,-0.2048,-0.2071,-0.2078,-0.2163,-0.2186,-0.2224,-0.2236,-0.2249,-0.2139,-0.2111,-0.2059,-0.2079,-0.2007,-0.2301,-0.1931,-0.1949,-0.1942,-0.1966,-0.1793,-0.1796,-0.1799,-0.18,-0.1802,-0.1891,-0.1864,-0.1893,-0.1878,-0.1892,-0.1892,-0.1857,-0.1915,-0.192,-0.1943,-0.2046,-0.2015,-0.2024,-0.1895,-0.182,-0.1763,-0.1899,-0.18,-0.181,-0.1825,-0.1804,-0.182,-0.1638,-0.164,-0.1642,-0.1644,-0.1646,0,-0.1746,-0.1744,-0.1731,-0.1719,-0.1689,-0.1746,-0.1757,-0.1715,-0.1691,-0.1748,-0.1763,-0.1616,-0.1564,-0.1584,-0.1455,-0.1437,-0.1408,-0.1366,-0.1325,-0.1359,-0.1389,-0.1346,-0.1058,-0.1056,-0.1054,-0.1053,0,0,-0.1667,-0.161,-0.161,-0.1521,-0.1519,-0.1442,-0.1425,-0.1395,-0.14,-0.1349,-0.1339,-0.1476,-0.1529,-0.1294,-0.1244,-0.1134,-0.1227,-0.1071,-0.154,-0.1524,-0.1552,-0.1635,-0.1606,0,0,0,0,0]},{"header":{"parameterUnit":"m.s-1","parameterCategory":2,"la1":30.2991,"la2":30.254,"lo1":-89.0895,"lo2":-89.0444,"dy":0.0017,"dx":0.0017,"nx":28,"ny":28,"refTime":"2024-12-14T09:00:00:Z","depth":"2","parameterNumber":3,"parameterNumberName":"V-component_of_CURRENTS"},"data":[0,0,0,0,0,0,0,0,0,0,0,0,0,0,0,0,0,0,0,0,0,0,0,0,0,0,0,0,0,0,0,0,0,0,0,0,0,0,0,0,0,0,0,0,0,0,0,0,0,0,0,0,0,0,0,0,0,0,-0.0209,-0.0208,0,-0.0129,-0.0128,-0.0127,-0.006,-0.0059,-0.0059,-0.0058,0.0088,0.0091,0.0095,0,0,0,0,0,0,0,0,0,0,0,0,0,-0.0202,-0.0203,-0.0209,-0.0208,-0.0208,-0.0129,-0.0128,-0.0127,-0.006,-0.0059,-0.0059,-0.0058,0.0087,0.0091,0.0095,0,0,0,0,0,0,0,0,0,0,0,0,0,-0.017,-0.0203,-0.0209,-0.0167,-0.0162,-0.0129,-0.0128,-0.0126,-0.006,-0.0059,-0.0059,-0.0058,0.0085,0.009,0.0095,0.0111,0,0,0.0111,0.0113,0,0,0,0,0,0,0,0,-0.0172,-0.017,-0.0174,-0.0169,-0.0164,-0.0106,-0.0072,-0.0044,-0.006,-0.0097,-0.0058,-0.0058,0.0027,0.0037,0.0053,0.0118,0.0124,0.0111,0.0115,0.0117,0.0118,0,0,0,0,0,0,0,-0.0175,-0.0173,-0.0175,-0.0173,-0.0167,-0.0116,-0.0112,-0.0066,-0.0037,-0.0093,-0.0089,-0.0084,0.0031,0.0047,0.0057,0.0127,0.0111,0.0116,0.0119,0.0121,0.0252,0.0253,0,0,0,0,0,0,-0.0195,-0.0176,-0.0178,-0.0173,-0.0169,-0.0118,-0.0112,-0.0123,-0.0039,-0.0026,-0.0084,-0.0081,0.0038,0.0051,0.0062,0.01,0.0117,0.0122,0.0124,0.0252,0.0252,0.0253,0,0,0,0,0,0,-0.0196,-0.0197,-0.0181,-0.0173,-0.0167,-0.012,-0.0132,-0.0122,-0.0106,-0.0033,-0.0019,-0.0079,0.004,0.0055,0.0105,0.0106,0.0124,0.0128,0.0251,0.0252,0.0252,0.0168,0,0,0,0,0,0,-0.0196,-0.0198,-0.021,-0.0175,-0.0169,-0.0174,-0.0133,-0.0121,-0.0105,-0.01,-0.0024,-0.0009,0.0041,0.0097,0.011,0.0114,0.0132,0.0251,0.0252,0.0252,0.017,0.0166,0.0162,0,0,0,0,0,-0.0197,-0.0231,-0.0211,-0.0211,-0.0189,-0.0175,-0.0167,-0.0127,-0.0106,-0.0108,-0.0048,-0.0012,0.0111,0.0101,0.0116,0.0121,0.025,0.0251,0.0252,0.0172,0.0167,0.0162,0,0,0,0,0,0,-0.0239,-0.0226,-0.0204,-0.0233,-0.0207,-0.0165,-0.0167,-0.0136,-0.0092,-0.0084,-0.001,0.0008,0.0054,0.0099,0.0086,0.0164,0.0189,0.0193,0.0123,0.0118,0.0114,0.0096,0.0137,0,0,0,0,0,-0.0253,-0.0272,-0.0242,-0.0262,-0.0256,-0.021,-0.0198,-0.0172,-0.013,-0.0111,-0.0055,0.001,0.0069,0.0101,0.0155,0.0192,0.0234,0.0209,0.0204,0.02,0.0198,0.0259,0.0259,0.0256,0.0256,0.0256,0,0,-0.0273,-0.0269,-0.0278,-0.0271,-0.0248,-0.0243,-0.0201,-0.0196,-0.0178,-0.0101,-0.0064,-0.0007,0.0076,0.0121,0.0146,0.0159,0.0223,0.0202,0.0197,0.0198,0.026,0.026,0.026,0.0256,0.0256,0.0256,0,0,-0.033,-0.0321,-0.0354,-0.0335,-0.0313,-0.0279,-0.0282,-0.0242,-0.0212,-0.0173,-0.0106,-0.0051,0.003,0.0092,0.0136,0.0141,0.0196,0.016,0.0126,0.0184,0.0185,0.0186,0.0228,0.0234,0.016,0.016,0.0159,0,-0.0353,-0.0383,-0.0358,-0.0376,-0.0358,-0.03,-0.031,-0.0274,-0.0219,-0.0186,-0.0173,-0.0039,0.002,0.0097,0.0098,0.013,0.0166,0.0134,0.0176,0.0178,0.0181,0.0225,0.0232,0.0156,0.0156,0.0156,0.0157,0,-0.0429,-0.0436,-0.0454,-0.0447,-0.0427,-0.0429,-0.0373,-0.0343,-0.0297,-0.0249,-0.0176,-0.0096,-0.0013,0.0014,0.0057,0.0111,0.013,0.0158,0.0181,0.0175,0.0223,0.0231,0.015,0.0151,0.0153,0.0153,0,0,-0.0513,-0.0509,-0.0509,-0.0498,-0.046,-0.0448,-0.0417,-0.0361,-0.0326,-0.0269,-0.022,-0.0126,-0.0082,-0.003,0.0034,0.0081,0.0121,0.0116,0.0121,0.0144,0.0237,0.0268,0.0281,0.0152,0.0153,0.0155,0.0259,0,-0.0568,-0.0611,-0.0585,-0.0585,-0.0588,-0.0513,-0.048,-0.0418,-0.0354,-0.0294,-0.0203,-0.0137,-0.0096,-0.0058,-0.0006,0.0096,0.0142,0.0089,0.0253,0.0258,0.0274,0.0292,0.0256,0.0347,0.0268,0.0269,0.027,0,-0.0649,-0.0652,-0.0683,-0.0628,-0.0621,-0.0609,-0.0526,-0.0489,-0.0387,-0.0338,-0.0261,-0.0187,-0.0098,-0.0071,0.0084,0.0047,0.0129,0.02,0.0206,0.0272,0.0306,0.0346,0.0367,0.0286,0.0284,0.0283,0.0282,0,-0.0718,-0.071,-0.073,-0.0717,-0.0661,-0.0643,-0.06,-0.0508,-0.0466,-0.0367,-0.033,-0.0212,-0.0153,-0.0036,0.0106,0.0097,0.0271,0.0285,0.0391,0.0394,0.0415,0.0418,0.0388,0.0388,0.0387,0.0387,0.0387,0,-0.079,-0.0795,-0.0763,-0.0772,-0.0755,-0.0699,-0.0666,-0.0601,-0.0521,-0.0475,-0.0365,-0.0307,-0.0143,-0.0022,0.01,0.0275,0.0273,0.039,0.0429,0.0385,0.0384,0.0374,0.0371,0.0391,0.039,0.0389,0.0389,0,-0.0869,-0.086,-0.0863,-0.0815,-0.0798,-0.0785,-0.0715,-0.0684,-0.0606,-0.0546,-0.0521,-0.0372,-0.0211,-0.0038,0.0164,0.027,0.0434,0.0495,0.0424,0.0453,0.0515,0.0506,0.0622,0.0624,0.0626,0.0628,0.0629,0,-0.0919,-0.0939,-0.0903,-0.0896,-0.0878,-0.0846,-0.0821,-0.0738,-0.0704,-0.0583,-0.056,-0.0398,-0.0268,0.0041,0.0258,0.0491,0.0488,0.0587,0.057,0.0516,0.0542,0.0531,0.052,0.0561,0.0562,0.0562,0.0563,0,-0.0983,-0.0975,-0.0969,-0.0958,-0.0942,-0.0914,-0.0875,-0.0865,-0.077,-0.071,-0.0603,-0.0493,-0.0195,0.0057,0.036,0.0489,0.0547,0.0605,0.0588,0.0505,0.0467,0.0489,0.048,0.0567,0.0567,0.0566,0.0566,0.0566,-0.1016,-0.1023,-0.1013,-0.0995,-0.0984,-0.097,-0.0951,-0.0912,-0.0861,-0.0757,-0.0655,-0.047,-0.022,0.0207,0.0423,0.0622,0.0621,0.0665,0.066,0.0656,0.0627,0.0595,0.0713,0.0713,0.0713,0.0714,0.0714,0,-0.1037,-0.1041,-0.104,-0.1021,-0.1018,-0.0996,-0.0968,-0.0934,-0.0885,-0.0777,-0.0655,-0.0382,-0.0087,0.0177,0.0498,0.0693,0.0669,0.0714,0.0643,0.0638,0.0634,0.0601,0.0682,0.0682,0.0682,0.0683,0,0,-0.1048,-0.1052,-0.1045,-0.1037,-0.1034,-0.1013,-0.0998,-0.0944,-0.0854,-0.0743,-0.0611,-0.0418,-0.0087,0.0129,0.0372,0.0539,0.0536,0.055,0.0556,0.0439,0.0432,0.0588,0.053,0,0,0,0,0]}],[{"header":{"parameterUnit":"m.s-1","parameterCategory":2,"la1":30.2991,"la2":30.254,"lo1":-89.0895,"lo2":-89.0444,"dy":0.0017,"dx":0.0017,"nx":28,"ny":28,"refTime":"2024-12-14T09:00:00:Z","depth":"4","parameterNumber":2,"parameterNumberName":"U-component_of_CURRENTS"},"data":[0,0,0,0,0,0,0,0,0,0,0,0,0,0,0,0,0,0,0,0,0,0,0,0,0,0,0,0,0,0,0,0,0,0,0,0,0,0,0,0,0,0,0,0,0,0,0,0,0,0,0,0,0,0,0,0,0,0,-0.1543,-0.1543,0,-0.1529,-0.1528,-0.1528,-0.1548,-0.1549,-0.155,-0.1551,-0.1541,-0.154,-0.1539,0,0,0,0,0,0,0,0,0,0,0,0,0,-0.1457,-0.1459,-0.1543,-0.1543,-0.1544,-0.1529,-0.1528,-0.1528,-0.1548,-0.1549,-0.1551,-0.1552,-0.1541,-0.154,-0.1538,0,0,0,0,0,0,0,0,0,0,0,0,0,-0.1471,-0.146,-0.1543,-0.1554,-0.1555,-0.1529,-0.1528,-0.1528,-0.1548,-0.1549,-0.1551,-0.1552,-0.1542,-0.154,-0.1538,-0.1499,0,0,-0.1533,-0.1532,0,0,0,0,0,0,0,0,-0.1471,-0.1474,-0.1552,-0.1553,-0.1554,-0.1544,-0.1494,-0.1519,-0.1548,-0.1548,-0.1551,-0.1553,-0.1543,-0.1541,-0.1532,-0.1498,-0.1498,-0.1533,-0.1532,-0.1531,-0.153,0,0,0,0,0,0,0,-0.147,-0.1474,-0.1535,-0.1552,-0.1553,-0.1514,-0.1519,-0.1498,-0.1536,-0.1548,-0.155,-0.1552,-0.1543,-0.1533,-0.1532,-0.1498,-0.1533,-0.1531,-0.153,-0.153,-0.1551,-0.1553,0,0,0,0,0,0,-0.1483,-0.1474,-0.1536,-0.1535,-0.1518,-0.1515,-0.152,-0.1544,-0.1536,-0.1537,-0.1551,-0.1553,-0.1535,-0.1534,-0.1531,-0.1595,-0.1531,-0.1529,-0.1528,-0.1549,-0.1551,-0.1553,0,0,0,0,0,0,-0.1481,-0.1489,-0.1536,-0.1504,-0.1508,-0.1516,-0.1542,-0.1543,-0.1556,-0.1538,-0.1539,-0.1566,-0.1536,-0.1534,-0.1552,-0.1591,-0.1529,-0.1527,-0.1548,-0.155,-0.1552,-0.1652,0,0,0,0,0,0,-0.1479,-0.1489,-0.1518,-0.1506,-0.1511,-0.1534,-0.1541,-0.1542,-0.1554,-0.1558,-0.1551,-0.155,-0.1537,-0.1555,-0.155,-0.1587,-0.1526,-0.1546,-0.1549,-0.1552,-0.1647,-0.1657,-0.1667,0,0,0,0,0,-0.1476,-0.15,-0.152,-0.1528,-0.1549,-0.1535,-0.1533,-0.154,-0.1554,-0.1557,-0.1573,-0.1552,-0.1571,-0.1554,-0.1549,-0.1586,-0.1544,-0.1548,-0.1551,-0.1642,-0.1655,-0.1666,0,0,0,0,0,0,-0.1481,-0.1505,-0.1526,-0.156,-0.1558,-0.154,-0.1541,-0.1549,-0.156,-0.1574,-0.1563,-0.1564,-0.1595,-0.1573,-0.1555,-0.1603,-0.1557,-0.1559,-0.1628,-0.164,-0.165,-0.1644,-0.1524,0,0,0,0,0,-0.1497,-0.1525,-0.1531,-0.1561,-0.1558,-0.1555,-0.1555,-0.1562,-0.1565,-0.1572,-0.1581,-0.1589,-0.1599,-0.1607,-0.1604,-0.162,-0.1592,-0.1644,-0.1654,-0.1662,-0.1655,-0.1662,-0.1672,-0.1565,-0.1565,-0.1565,0,0,-0.1514,-0.1525,-0.1548,-0.1564,-0.1559,-0.1567,-0.1557,-0.1561,-0.159,-0.1567,-0.1616,-0.1619,-0.161,-0.1643,-0.1655,-0.1634,-0.1679,-0.1667,-0.1675,-0.1662,-0.1667,-0.1678,-0.1687,-0.1568,-0.1567,-0.1567,0,0,-0.1522,-0.1562,-0.1572,-0.1575,-0.1577,-0.1582,-0.159,-0.1595,-0.1618,-0.165,-0.1658,-0.1687,-0.1694,-0.1709,-0.1712,-0.1769,-0.1729,-0.1776,-0.1826,-0.1835,-0.1843,-0.185,-0.1829,-0.1834,-0.1785,-0.1786,-0.1786,0,-0.154,-0.1561,-0.157,-0.157,-0.1586,-0.1595,-0.1609,-0.1627,-0.1651,-0.168,-0.1681,-0.1728,-0.1725,-0.1769,-0.1802,-0.1792,-0.1779,-0.1784,-0.1848,-0.1854,-0.186,-0.1836,-0.184,-0.1791,-0.179,-0.179,-0.1789,0,-0.1535,-0.1568,-0.1566,-0.1591,-0.1611,-0.1617,-0.165,-0.169,-0.1727,-0.1749,-0.1807,-0.1811,-0.1839,-0.1854,-0.1846,-0.1898,-0.187,-0.1858,-0.1817,-0.1877,-0.1848,-0.185,-0.1798,-0.1797,-0.1795,-0.1794,0,0,-0.1532,-0.1561,-0.1564,-0.1591,-0.1626,-0.164,-0.1704,-0.1754,-0.1801,-0.1841,-0.1893,-0.1932,-0.1941,-0.1944,-0.1947,-0.196,-0.1997,-0.1937,-0.1935,-0.1914,-0.2001,-0.1881,-0.1871,-0.2005,-0.2006,-0.2007,-0.1965,0,-0.1523,-0.1537,-0.1564,-0.1615,-0.163,-0.1686,-0.1744,-0.1806,-0.1853,-0.1907,-0.1935,-0.1971,-0.1973,-0.1991,-0.2014,-0.1995,-0.2007,-0.2008,-0.1945,-0.1942,-0.1829,-0.1871,-0.201,-0.1966,-0.1966,-0.1966,-0.1966,0,-0.15,-0.1519,-0.1557,-0.164,-0.1653,-0.1703,-0.1808,-0.1857,-0.1937,-0.197,-0.2022,-0.2031,-0.2071,-0.2052,-0.2062,-0.2067,-0.2045,-0.2024,-0.2022,-0.1872,-0.1827,-0.1892,-0.1969,-0.1969,-0.1969,-0.1969,-0.1968,0,-0.1472,-0.1522,-0.1562,-0.1584,-0.1672,-0.1731,-0.1792,-0.1884,-0.1926,-0.2006,-0.2031,-0.2081,-0.2092,-0.2092,-0.2066,-0.207,-0.2049,-0.2043,-0.1913,-0.1903,-0.1978,-0.1971,-0.2045,-0.2045,-0.2045,-0.2045,-0.2045,0,-0.1439,-0.148,-0.156,-0.158,-0.1653,-0.1729,-0.181,-0.1877,-0.1954,-0.1983,-0.2056,-0.2065,-0.2105,-0.2098,-0.2076,-0.1991,-0.2059,-0.1914,-0.1888,-0.2021,-0.2019,-0.1979,-0.1972,-0.2043,-0.2044,-0.2044,-0.2044,0,-0.1401,-0.1446,-0.1501,-0.16,-0.1638,-0.1695,-0.1805,-0.1843,-0.1934,-0.1971,-0.1991,-0.2056,-0.2042,-0.2055,-0.2034,-0.1977,-0.192,-0.1875,-0.2002,-0.1984,-0.1765,-0.1764,-0.1717,-0.1713,-0.1709,-0.1706,-0.1703,0,-0.1375,-0.1397,-0.15,-0.1527,-0.1577,-0.1665,-0.1709,-0.182,-0.1844,-0.1937,-0.1927,-0.1961,-0.1984,-0.1852,-0.1893,-0.1836,-0.182,-0.1778,-0.1787,-0.1754,-0.1733,-0.1738,-0.1742,-0.1697,-0.1696,-0.1695,-0.1694,0,-0.1326,-0.1374,-0.1411,-0.1461,-0.1517,-0.157,-0.164,-0.1645,-0.1745,-0.1843,-0.1805,-0.1791,-0.1772,-0.1755,-0.1724,-0.1689,-0.1799,-0.1738,-0.1746,-0.1754,-0.1729,-0.1713,-0.1722,-0.1681,-0.1683,-0.1684,-0.1685,0,-0.1282,-0.1291,-0.1332,-0.1369,-0.143,-0.1439,-0.1501,-0.1514,-0.1553,-0.1654,-0.1633,-0.1676,-0.1741,-0.1676,-0.1648,-0.1606,-0.1584,-0.1531,-0.155,-0.1565,-0.1538,-0.1486,-0.1333,0,0,0,0,0,-0.1217,-0.1202,-0.1228,-0.1251,-0.1308,-0.134,-0.1425,-0.1483,-0.1579,-0.1504,-0.1564,-0.1537,-0.1501,-0.1531,-0.1453,-0.1588,-0.1597,-0.1493,-0.1548,-0.1608,-0.1623,-0.1607,0,0,0,0,0,0,-0.116,-0.118,-0.1181,-0.1141,-0.1135,-0.118,-0.1227,-0.13,-0.127,-0.1373,-0.1358,-0.1439,-0.1426,-0.1511,-0.1417,-0.1426,-0.1429,-0.1531,-0.1527,-0.1599,-0.1613,-0.1625,-0.1614,0,0,0,0,0]},{"header":{"parameterUnit":"m.s-1","parameterCategory":2,"la1":30.2991,"la2":30.254,"lo1":-89.0895,"lo2":-89.0444,"dy":0.0017,"dx":0.0017,"nx":28,"ny":28,"refTime":"2024-12-14T09:00:00:Z","depth":"4","parameterNumber":3,"parameterNumberName":"V-component_of_CURRENTS"},"data":[0,0,0,0,0,0,0,0,0,0,0,0,0,0,0,0,0,0,0,0,0,0,0,0,0,0,0,0,0,0,0,0,0,0,0,0,0,0,0,0,0,0,0,0,0,0,0,0,0,0,0,0,0,0,0,0,0,0,-0.0129,-0.0128,0,-0.0075,-0.0075,-0.0074,-0.0029,-0.0029,-0.0028,-0.0028,0.006,0.0062,0.0064,0,0,0,0,0,0,0,0,0,0,0,0,0,-0.0126,-0.0127,-0.0129,-0.0128,-0.0128,-0.0076,-0.0075,-0.0074,-0.0029,-0.0029,-0.0028,-0.0028,0.0059,0.0062,0.0064,0,0,0,0,0,0,0,0,0,0,0,0,0,-0.0105,-0.0127,-0.0129,-0.01,-0.0097,-0.0076,-0.0075,-0.0074,-0.0029,-0.0029,-0.0028,-0.0028,0.0059,0.0061,0.0064,0.0071,0,0,0.0073,0.0075,0,0,0,0,0,0,0,0,-0.0106,-0.0105,-0.0105,-0.0102,-0.0098,-0.0059,-0.0041,-0.0024,-0.0029,-0.0054,-0.0028,-0.0027,0.0022,0.0028,0.0038,0.0075,0.0079,0.0074,0.0076,0.0077,0.0078,0,0,0,0,0,0,0,-0.0108,-0.0106,-0.0107,-0.0104,-0.01,-0.0067,-0.0064,-0.0038,-0.0018,-0.0052,-0.0049,-0.0044,0.0025,0.0035,0.004,0.008,0.0074,0.0076,0.0078,0.0079,0.0137,0.0137,0,0,0,0,0,0,-0.012,-0.0108,-0.0109,-0.0105,-0.0102,-0.0068,-0.0064,-0.0072,-0.0019,-0.0011,-0.0045,-0.0043,0.003,0.0037,0.0044,0.0063,0.0077,0.008,0.0081,0.0138,0.0137,0.0137,0,0,0,0,0,0,-0.0121,-0.0122,-0.0111,-0.0105,-0.0102,-0.0069,-0.0077,-0.0071,-0.0061,-0.0015,-0.0006,-0.0042,0.003,0.004,0.0065,0.0066,0.0081,0.0084,0.0138,0.0138,0.0137,0.0095,0,0,0,0,0,0,-0.0121,-0.0122,-0.0132,-0.0107,-0.0103,-0.0105,-0.0078,-0.007,-0.006,-0.0056,-0.001,-0.0001,0.0031,0.006,0.0068,0.0071,0.0086,0.0138,0.0138,0.0137,0.0097,0.0094,0.0091,0,0,0,0,0,-0.0121,-0.0144,-0.0133,-0.0133,-0.0118,-0.0106,-0.0101,-0.0074,-0.0061,-0.0062,-0.0028,-0.0002,0.0063,0.0062,0.0071,0.0075,0.0138,0.0138,0.0137,0.0098,0.0094,0.0091,0,0,0,0,0,0,-0.0151,-0.014,-0.0129,-0.0147,-0.0129,-0.0099,-0.0099,-0.0081,-0.0055,-0.0051,-0.0005,0.0006,0.0028,0.0054,0.0052,0.009,0.0105,0.0106,0.0072,0.0069,0.0066,0.0062,0.0088,0,0,0,0,0,-0.0162,-0.0175,-0.0153,-0.0168,-0.0161,-0.0131,-0.0123,-0.0106,-0.008,-0.0068,-0.0037,-0.0001,0.0033,0.0051,0.008,0.0099,0.0132,0.0107,0.0104,0.0101,0.0104,0.0157,0.0159,0.0136,0.0136,0.0136,0,0,-0.0177,-0.0173,-0.018,-0.0174,-0.0158,-0.0156,-0.0125,-0.012,-0.0112,-0.0063,-0.0048,-0.0014,0.0034,0.0058,0.0071,0.0081,0.0122,0.0101,0.0098,0.0102,0.0156,0.0159,0.0161,0.0135,0.0135,0.0135,0,0,-0.0214,-0.0211,-0.023,-0.0219,-0.0202,-0.0181,-0.0182,-0.0156,-0.0138,-0.0121,-0.0079,-0.0044,-0.0005,0.0038,0.0064,0.0059,0.0101,0.0064,0.0051,0.0101,0.0104,0.0107,0.0137,0.0143,0.0066,0.0066,0.0066,0,-0.0234,-0.0251,-0.0233,-0.0243,-0.0235,-0.0196,-0.0204,-0.0182,-0.015,-0.0131,-0.0124,-0.0046,-0.0011,0.0042,0.004,0.0054,0.0081,0.0061,0.0098,0.0101,0.0105,0.0136,0.0143,0.0064,0.0064,0.0064,0.0064,0,-0.0279,-0.0287,-0.0297,-0.0294,-0.0285,-0.0286,-0.0252,-0.0237,-0.0211,-0.0179,-0.0133,-0.0081,-0.0031,-0.0015,0.0012,0.0057,0.0066,0.0085,0.0107,0.0105,0.0137,0.0146,0.0061,0.0061,0.0062,0.0062,0,0,-0.0335,-0.033,-0.0332,-0.0331,-0.0309,-0.0305,-0.029,-0.0256,-0.0236,-0.0198,-0.0166,-0.0104,-0.007,-0.0038,0.0005,0.0051,0.0093,0.0073,0.0076,0.0102,0.0192,0.0172,0.018,0.0119,0.0121,0.0122,0.02,0,-0.0371,-0.0398,-0.0383,-0.0394,-0.0399,-0.0355,-0.0341,-0.0305,-0.0263,-0.0225,-0.0154,-0.0112,-0.0079,-0.0054,-0.0004,0.0072,0.0114,0.0069,0.0191,0.0195,0.0178,0.0189,0.0126,0.0206,0.0208,0.0209,0.021,0,-0.0421,-0.0425,-0.0451,-0.043,-0.0428,-0.0432,-0.0389,-0.037,-0.0299,-0.0264,-0.0203,-0.0148,-0.0072,-0.0051,0.008,0.0048,0.0112,0.0169,0.0174,0.0179,0.0191,0.0214,0.0226,0.0224,0.0223,0.0222,0.0221,0,-0.0468,-0.0471,-0.0491,-0.0488,-0.0464,-0.0464,-0.0445,-0.0388,-0.0363,-0.029,-0.0262,-0.0163,-0.0117,-0.0015,0.0094,0.009,0.0232,0.0245,0.029,0.0289,0.0302,0.0298,0.0336,0.0336,0.0336,0.0336,0.0335,0,-0.0512,-0.0529,-0.0519,-0.0532,-0.0542,-0.0511,-0.0505,-0.0467,-0.0411,-0.038,-0.0292,-0.0247,-0.0106,-0.0009,0.0091,0.0211,0.0233,0.0291,0.0313,0.0279,0.0272,0.0307,0.0302,0.0338,0.0338,0.0337,0.0337,0,-0.057,-0.0566,-0.0587,-0.0574,-0.0573,-0.0583,-0.0557,-0.0539,-0.0485,-0.0443,-0.0423,-0.0306,-0.018,-0.0039,0.0128,0.0197,0.0322,0.0358,0.0299,0.0316,0.0343,0.0336,0.0417,0.0417,0.0417,0.0417,0.0417,0,-0.0602,-0.0624,-0.063,-0.0639,-0.0641,-0.0644,-0.0638,-0.0588,-0.0562,-0.0476,-0.0455,-0.0336,-0.0246,-0.0026,0.0115,0.0308,0.0332,0.0387,0.0377,0.0341,0.0354,0.0347,0.0339,0.0417,0.0417,0.0417,0.0417,0,-0.0652,-0.0664,-0.0675,-0.0691,-0.0701,-0.0699,-0.0687,-0.0675,-0.0607,-0.0569,-0.0469,-0.0346,-0.0208,-0.0037,0.0111,0.0249,0.035,0.0389,0.039,0.0381,0.0342,0.0354,0.0347,0.0418,0.0418,0.0418,0.0418,0,-0.0685,-0.0704,-0.0714,-0.0721,-0.074,-0.0733,-0.0726,-0.0677,-0.0643,-0.0544,-0.0521,-0.0358,-0.0265,-0.0068,0.0071,0.0203,0.0235,0.027,0.0278,0.0279,0.0215,0.0144,0.0182,0,0,0,0,0,-0.07,-0.0712,-0.0729,-0.0731,-0.0752,-0.0752,-0.0737,-0.0717,-0.0668,-0.0604,-0.0554,-0.0421,-0.0207,-0.0112,0.0018,0.0065,0.025,0.0219,0.0292,0.0419,0.0419,0.0364,0,0,0,0,0,0,-0.0706,-0.0734,-0.0728,-0.0731,-0.0737,-0.0746,-0.074,-0.0709,-0.0657,-0.0601,-0.0485,-0.0409,-0.02,-0.0286,0.0011,0.0053,0.0112,0.0326,0.0328,0.0419,0.0419,0.0419,0.0363,0,0,0,0,0]}]]